Location: LDNL
(36.4545°S, 141.6685°E)
Time: 13:09:46
(UTC+11:00)

ISS - Pass Details

Date: 11 December 2021
Orbit: 413 x 422 km, 51.6° (Epoch: 26 January)

Event Time Altitude Azimuth Distance (km) Brightness Sun altitude
Exits shadow 23:13:58 22° 142° (SE) 986 -1.7 -22.8°
Drops below altitude 10° 23:15:18 10° 137° (SE) 1,510 -0.8 -22.9°
Sets 23:17:26 0° 133° (SE) 2,380 0.2 -23.1°
